| time (UTC) | temp F | wind direction | speed knots | gust knots | rain 1hr in | rain 24hr in | rain mn in | humidity % | barometer mb |
| 20260507174248 | 70 | 336 | 3.5 | 7.8 | 0.00 | 0.00 | 0.00 | 72 | 1011.4 |
| 20260507173246 | 69 | 327 | 2.6 | 7.0 | 0.00 | 0.00 | 0.00 | 74 | 1011.4 |
| 20260507172750 | 69 | 325 | 2.6 | 7.0 | 0.00 | 0.00 | 0.00 | 73 | 1011.7 |
| 20260507172244 | 68 | 317 | 2.6 | 6.1 | 0.00 | 0.00 | 0.00 | 75 | 1011.7 |
| 20260507171744 | 67 | 329 | 2.6 | 6.1 | 0.00 | 0.00 | 0.00 | 76 | 1011.7 |
| 20260507171241 | 67 | 339 | 2.6 | 6.1 | 0.00 | 0.00 | 0.00 | 76 | 1011.7 |
| 20260507170731 | 66 | 20 | 2.6 | 6.1 | 0.00 | 0.00 | 0.00 | 79 | 1011.7 |
| 20260507170230 | 65 | 11 | 3.5 | 6.1 | 0.00 | 0.00 | 0.00 | 80 | 1011.7 |
| 20260507165724 | 64 | 355 | 3.5 | 7.0 | 0.00 | 0.00 | 0.00 | 81 | 1011.8 |
| 20260507165224 | 64 | 337 | 3.5 | 7.0 | 0.00 | 0.00 | 0.00 | 81 | 1011.8 |
| 20260507164722 | 63 | 12 | 2.6 | 7.0 | 0.00 | 0.00 | 0.00 | 84 | 1011.8 |
| 20260507164222 | 62 | 355 | 3.5 | 7.8 | 0.00 | 0.00 | 0.00 | 85 | 1011.8 |
| 20260507163719 | 61 | 342 | 3.5 | 7.8 | 0.00 | 0.00 | 0.00 | 85 | 1011.8 |
| 20260507163215 | 61 | 321 | 2.6 | 8.7 | 0.00 | 0.00 | 0.00 | 87 | 1011.8 |
| 20260507162714 | 60 | 5 | 2.6 | 7.8 | 0.00 | 0.00 | 0.00 | 88 | 1011.8 |
| 20260507162210 | 60 | 0 | 3.5 | 7.8 | 0.00 | 0.00 | 0.00 | 89 | 1011.8 |
| 20260507161713 | 59 | 355 | 3.5 | 7.0 | 0.00 | 0.00 | 0.00 | 89 | 1011.8 |
| 20260507161208 | 59 | 347 | 3.5 | 7.0 | 0.00 | 0.00 | 0.00 | 91 | 1011.8 |
| 20260507160703 | 59 | 344 | 3.5 | 7.0 | 0.00 | 0.00 | 0.00 | 92 | 1011.8 |
| 20260507160201 | 58 | 322 | 3.5 | 7.0 | 0.00 | 0.00 | 0.00 | 94 | 1011.8 |
| 20260507155700 | 57 | 331 | 3.5 | 8.7 | 0.00 | 0.00 | 0.00 | 95 | 1011.9 |
| 20260507155159 | 57 | 313 | 3.5 | 8.7 | 0.00 | 0.00 | 0.00 | 95 | 1011.8 |
| 20260507154654 | 56 | 331 | 3.5 | 7.8 | 0.00 | 0.00 | 0.00 | 95 | 1011.8 |
| 20260507154156 | 56 | 304 | 2.6 | 7.8 | 0.00 | 0.00 | 0.00 | 96 | 1011.7 |
| 20260507153655 | 56 | 313 | 3.5 | 7.0 | 0.00 | 0.00 | 0.00 | 96 | 1011.7 |
| 20260507153150 | 56 | 333 | 3.5 | 7.0 | 0.00 | 0.00 | 0.00 | 96 | 1011.7 |
| 20260507152652 | 56 | 333 | 2.6 | 7.0 | 0.00 | 0.00 | 0.00 | 96 | 1011.7 |
| 20260507151654 | 55 | 336 | 2.6 | 6.1 | 0.00 | 0.00 | 0.00 | 97 | 1011.7 |
| 20260507151149 | 55 | 325 | 2.6 | 6.1 | 0.00 | 0.00 | 0.00 | 96 | 1011.7 |
| 20260507150649 | 55 | 333 | 1.7 | 6.1 | 0.00 | 0.00 | 0.00 | 96 | 1011.7 |
| 20260507150147 | 55 | 339 | 2.6 | 7.8 | 0.00 | 0.00 | 0.00 | 96 | 1011.7 |
| 20260507145645 | 54 | 324 | 2.6 | 7.8 | 0.00 | 0.00 | 0.00 | 96 | 1011.7 |
| 20260507145146 | 54 | 313 | 2.6 | 7.0 | 0.00 | 0.00 | 0.00 | 96 | 1011.7 |
| 20260507144645 | 54 | 326 | 3.5 | 7.0 | 0.00 | 0.00 | 0.00 | 96 | 1011.7 |
| 20260507144146 | 54 | 317 | 2.6 | 7.0 | 0.00 | 0.00 | 0.00 | 96 | 1011.8 |
| 20260507143644 | 54 | 355 | 2.6 | 7.0 | 0.00 | 0.00 | 0.00 | 96 | 1011.8 |
| 20260507143138 | 53 | 335 | 3.5 | 7.0 | 0.00 | 0.00 | 0.00 | 96 | 1011.8 |
| 20260507142636 | 53 | 317 | 2.6 | 7.0 | 0.00 | 0.00 | 0.00 | 96 | 1011.6 |
| 20260507142143 | 53 | 326 | 1.7 | 5.2 | 0.00 | 0.00 | 0.00 | 96 | 1011.6 |
| 20260507141635 | 53 | 331 | 2.6 | 7.0 | 0.00 | 0.00 | 0.00 | 96 | 1011.6 |
| 20260507141135 | 53 | 331 | 2.6 | 7.0 | 0.00 | 0.00 | 0.00 | 96 | 1011.6 |
| 20260507140637 | 53 | 329 | 2.6 | 5.2 | 0.00 | 0.00 | 0.00 | 96 | 1011.6 |
| 20260507140136 | 53 | 329 | 1.7 | 5.2 | 0.00 | 0.00 | 0.00 | 96 | 1011.6 |
| 20260507135635 | 52 | 331 | 1.7 | 4.3 | 0.00 | 0.00 | 0.00 | 96 | 1011.4 |
| 20260507135131 | 52 | 331 | 2.6 | 4.3 | 0.00 | 0.00 | 0.00 | 95 | 1011.4 |
| 20260507134633 | 52 | 331 | 1.7 | 5.2 | 0.00 | 0.00 | 0.00 | 95 | 1011.4 |
| 20260507133625 | 52 | 331 | 1.7 | 5.2 | 0.00 | 0.00 | 0.00 | 95 | 1011.4 |
| 20260507133126 | 52 | 308 | 0.9 | 3.5 | 0.00 | 0.00 | 0.00 | 95 | 1011.4 |
| 20260507132626 | 52 | 344 | 0.9 | 3.5 | 0.00 | 0.00 | 0.00 | 95 | 1011.4 |
| 20260507131621 | 52 | 344 | 2.6 | 6.1 | 0.00 | 0.00 | 0.00 | 95 | 1011.4 |
| 20260507131120 | 52 | 344 | 1.7 | 6.1 | 0.00 | 0.00 | 0.00 | 95 | 1011.1 |
| 20260507130118 | 53 | 348 | 1.7 | 5.2 | 0.00 | 0.00 | 0.00 | 95 | 1011.1 |
| 20260507125616 | 53 | 348 | 1.7 | 5.2 | 0.00 | 0.00 | 0.00 | 95 | 1011.1 |
| 20260507125116 | 53 | 351 | 1.7 | 5.2 | 0.00 | 0.00 | 0.00 | 95 | 1011.1 |
| 20260507124615 | 53 | 355 | 1.7 | 5.2 | 0.00 | 0.00 | 0.00 | 95 | 1011.1 |
| 20260507124112 | 53 | 321 | 1.7 | 5.2 | 0.00 | 0.00 | 0.00 | 95 | 1011.2 |
| 20260507123609 | 53 | 320 | 1.7 | 5.2 | 0.00 | 0.00 | 0.00 | 95 | 1011.2 |
| 20260507123107 | 53 | 319 | 1.7 | 4.3 | 0.00 | 0.00 | 0.00 | 95 | 1011.2 |
| 20260507122605 | 53 | 319 | 1.7 | 4.3 | 0.00 | 0.00 | 0.00 | 95 | 1011.2 |
| 20260507122108 | 53 | 318 | 1.7 | 5.2 | 0.00 | 0.00 | 0.00 | 95 | 1011.2 |
| 20260507121102 | 52 | 319 | 0.9 | 3.5 | 0.00 | 0.00 | 0.00 | 95 | 1011.3 |
| 20260507120602 | 52 | 319 | 1.7 | 3.5 | 0.00 | 0.00 | 0.00 | 95 | 1011.3 |
| 20260507115602 | 52 | 318 | 0.0 | 1.7 | 0.00 | 0.00 | 0.00 | 94 | 1011.3 |
| 20260507115103 | 53 | 319 | 0.0 | 1.7 | 0.00 | 0.00 | 0.00 | 94 | 1011.3 |
| 20260507114601 | 53 | 319 | 0.9 | 2.6 | 0.00 | 0.00 | 0.00 | 95 | 1011.3 |
| 20260507114053 | 53 | 318 | 0.9 | 3.5 | 0.00 | 0.00 | 0.00 | 94 | 1011.4 |
| 20260507113550 | 53 | 319 | 0.9 | 3.5 | 0.00 | 0.00 | 0.00 | 95 | 1011.4 |
| 20260507113045 | 52 | 319 | 0.9 | 2.6 | 0.00 | 0.00 | 0.00 | 95 | 1011.4 |
| 20260507112540 | 52 | 319 | 0.9 | 2.6 | 0.00 | 0.00 | 0.00 | 94 | 1011.5 |
| 20260507111540 | 52 | 319 | 1.7 | 3.5 | 0.00 | 0.00 | 0.00 | 94 | 1011.5 |
| 20260507111036 | 53 | 319 | 1.7 | 3.5 | 0.00 | 0.00 | 0.00 | 94 | 1011.6 |
| 20260507110543 | 53 | 318 | 1.7 | 3.5 | 0.00 | 0.00 | 0.00 | 94 | 1011.6 |
| 20260507110037 | 53 | 318 | 1.7 | 4.3 | 0.00 | 0.00 | 0.00 | 94 | 1011.6 |
| 20260507105534 | 53 | 318 | 1.7 | 4.3 | 0.00 | 0.00 | 0.00 | 94 | 1011.6 |
| 20260507105034 | 53 | 318 | 1.7 | 5.2 | 0.00 | 0.00 | 0.00 | 94 | 1011.6 |
| 20260507104532 | 53 | 319 | 1.7 | 5.2 | 0.00 | 0.00 | 0.00 | 94 | 1011.6 |
| 20260507104029 | 53 | 309 | 0.9 | 3.5 | 0.00 | 0.00 | 0.00 | 94 | 1011.8 |
| 20260507103524 | 53 | 309 | 1.7 | 5.2 | 0.00 | 0.00 | 0.00 | 94 | 1011.8 |
| 20260507103027 | 53 | 309 | 1.7 | 5.2 | 0.00 | 0.00 | 0.00 | 94 | 1011.8 |
| 20260507102021 | 53 | 290 | 0.9 | 2.6 | 0.00 | 0.00 | 0.00 | 94 | 1012.1 |
| 20260507101521 | 53 | 290 | 0.9 | 4.3 | 0.00 | 0.00 | 0.00 | 94 | 1012.1 |
| 20260507101022 | 53 | 290 | 0.9 | 4.3 | 0.00 | 0.00 | 0.00 | 94 | 1012.0 |
| 20260507100019 | 52 | 315 | 0.0 | 1.7 | 0.00 | 0.00 | 0.00 | 93 | 1012.0 |
| 20260507094517 | 53 | 315 | 0.0 | 1.7 | 0.00 | 0.00 | 0.00 | 93 | 1012.0 |
| 20260507094015 | 53 | 315 | 0.0 | 1.7 | 0.00 | 0.00 | 0.00 | 93 | 1012.1 |
| 20260507093511 | 53 | 315 | 0.0 | 0.9 | 0.00 | 0.00 | 0.00 | 93 | 1012.1 |
| 20260507092513 | 54 | 315 | 0.0 | 2.6 | 0.00 | 0.00 | 0.00 | 93 | 1012.1 |
| 20260507092009 | 54 | 315 | 0.0 | 2.6 | 0.00 | 0.00 | 0.00 | 93 | 1012.1 |
| 20260507091007 | 54 | 315 | 1.7 | 4.3 | 0.00 | 0.00 | 0.00 | 93 | 1012.4 |
| 20260507090505 | 54 | 315 | 1.7 | 4.3 | 0.00 | 0.00 | 0.00 | 93 | 1012.4 |
| 20260507090005 | 55 | 320 | 1.7 | 3.5 | 0.00 | 0.00 | 0.00 | 93 | 1012.4 |
| 20260507085459 | 55 | 320 | 1.7 | 4.3 | 0.00 | 0.00 | 0.00 | 92 | 1012.6 |
| 20260507085005 | 55 | 320 | 1.7 | 4.3 | 0.00 | 0.00 | 0.00 | 92 | 1012.6 |
| 20260507083957 | 55 | 331 | 1.7 | 4.3 | 0.00 | 0.00 | 0.00 | 92 | 1012.6 |
| 20260507083449 | 55 | 333 | 0.9 | 2.6 | 0.00 | 0.00 | 0.00 | 92 | 1012.6 |
| 20260507082445 | 55 | 333 | 0.9 | 4.3 | 0.00 | 0.00 | 0.00 | 92 | 1012.7 |
| 20260507081943 | 55 | 333 | 1.7 | 4.3 | 0.00 | 0.00 | 0.00 | 92 | 1012.7 |
| 20260507081438 | 55 | 333 | 1.7 | 5.2 | 0.00 | 0.00 | 0.00 | 91 | 1012.7 |
| 20260507080940 | 56 | 333 | 1.7 | 5.2 | 0.00 | 0.00 | 0.00 | 91 | 1012.9 |
| 20260507080437 | 56 | 336 | 0.9 | 2.6 | 0.00 | 0.00 | 0.00 | 91 | 1012.9 |
| 20260507075935 | 56 | 336 | 0.9 | 2.6 | 0.00 | 0.00 | 0.00 | 91 | 1012.9 |
| 20260507075430 | 56 | 336 | 0.0 | 1.7 | 0.00 | 0.00 | 0.00 | 91 | 1013.1 |
| 20260507074927 | 56 | 336 | 0.0 | 1.7 | 0.00 | 0.00 | 0.00 | 91 | 1013.1 |
| 20260507074427 | 56 | 336 | 0.9 | 2.6 | 0.00 | 0.00 | 0.00 | 91 | 1013.1 |
| 20260507073927 | 56 | 336 | 0.9 | 2.6 | 0.00 | 0.00 | 0.00 | 91 | 1013.1 |
| 20260507073422 | 56 | 336 | 0.9 | 2.6 | 0.00 | 0.00 | 0.00 | 91 | 1013.1 |
| 20260507072922 | 56 | 336 | 0.9 | 3.5 | 0.00 | 0.00 | 0.00 | 91 | 1013.1 |
| 20260507072422 | 56 | 336 | 0.9 | 3.5 | 0.00 | 0.00 | 0.00 | 91 | 1013.1 |
| 20260507070916 | 56 | 336 | 1.7 | 3.5 | 0.00 | 0.00 | 0.00 | 91 | 1013.1 |
| 20260507070423 | 56 | 336 | 1.7 | 3.5 | 0.00 | 0.00 | 0.00 | 91 | 1013.1 |
| 20260507065916 | 56 | 336 | 0.9 | 3.5 | 0.00 | 0.00 | 0.00 | 91 | 1013.1 |
| 20260507065410 | 56 | 336 | 0.9 | 3.5 | 0.00 | 0.00 | 0.00 | 91 | 1013.1 |
| 20260507064905 | 56 | 336 | 1.7 | 3.5 | 0.00 | 0.00 | 0.00 | 91 | 1013.1 |
| 20260507064406 | 56 | 336 | 1.7 | 3.5 | 0.00 | 0.00 | 0.00 | 90 | 1013.1 |
| 20260507063905 | 56 | 336 | 0.9 | 3.5 | 0.00 | 0.00 | 0.00 | 90 | 1013.2 |
| 20260507063405 | 56 | 336 | 1.7 | 4.3 | 0.00 | 0.00 | 0.00 | 90 | 1013.2 |
| 20260507062906 | 56 | 336 | 1.7 | 4.3 | 0.00 | 0.00 | 0.00 | 90 | 1013.2 |
| 20260507061904 | 56 | 336 | 1.7 | 5.2 | 0.00 | 0.00 | 0.00 | 90 | 1013.2 |
| 20260507061401 | 56 | 336 | 1.7 | 5.2 | 0.00 | 0.00 | 0.00 | 90 | 1013.2 |
| 20260507060858 | 56 | 336 | 1.7 | 5.2 | 0.00 | 0.00 | 0.00 | 90 | 1013.2 |
| 20260507060352 | 56 | 337 | 1.7 | 5.2 | 0.00 | 0.00 | 0.00 | 90 | 1013.2 |
| 20260507055850 | 56 | 336 | 0.9 | 3.5 | 0.00 | 0.00 | 0.00 | 90 | 1013.3 |
| 20260507055350 | 56 | 336 | 1.7 | 5.2 | 0.00 | 0.00 | 0.00 | 90 | 1013.3 |
| 20260507054850 | 56 | 336 | 1.7 | 5.2 | 0.00 | 0.00 | 0.00 | 89 | 1013.3 |
| 20260507054350 | 56 | 336 | 1.7 | 4.3 | 0.00 | 0.00 | 0.00 | 89 | 1013.4 |
| 20260507053848 | 57 | 335 | 1.7 | 4.3 | 0.00 | 0.00 | 0.00 | 89 | 1013.4 |
| 20260507052849 | 57 | 336 | 0.9 | 4.3 | 0.00 | 0.00 | 0.00 | 89 | 1013.2 |
| 20260507052344 | 57 | 336 | 1.7 | 7.0 | 0.00 | 0.00 | 0.00 | 89 | 1013.2 |
| 20260507051836 | 57 | 334 | 1.7 | 7.0 | 0.00 | 0.00 | 0.00 | 89 | 1013.2 |
| 20260507050833 | 57 | 335 | 1.7 | 5.2 | 0.00 | 0.00 | 0.00 | 89 | 1013.2 |
| 20260507050329 | 57 | 333 | 1.7 | 5.2 | 0.00 | 0.00 | 0.00 | 89 | 1013.2 |
| 20260507045828 | 57 | 333 | 1.7 | 5.2 | 0.00 | 0.00 | 0.00 | 89 | 1013.2 |
| 20260507044819 | 57 | 320 | 2.6 | 6.1 | 0.00 | 0.00 | 0.00 | 89 | 1013.2 |
| 20260507044319 | 57 | 335 | 1.7 | 5.2 | 0.00 | 0.00 | 0.00 | 89 | 1013.1 |
| 20260507043814 | 57 | 334 | 1.7 | 4.3 | 0.00 | 0.00 | 0.00 | 89 | 1013.1 |
| 20260507043312 | 57 | 334 | 1.7 | 4.3 | 0.00 | 0.00 | 0.00 | 88 | 1013.1 |
| 20260507042813 | 57 | 335 | 1.7 | 4.3 | 0.00 | 0.00 | 0.00 | 88 | 1013.1 |
| 20260507042311 | 57 | 335 | 1.7 | 3.5 | 0.00 | 0.00 | 0.00 | 88 | 1013.1 |
| 20260507041812 | 57 | 335 | 1.7 | 4.3 | 0.00 | 0.00 | 0.00 | 88 | 1013.1 |
| 20260507041312 | 57 | 335 | 0.9 | 4.3 | 0.00 | 0.00 | 0.00 | 87 | 1012.9 |
| 20260507040812 | 57 | 336 | 1.7 | 6.1 | 0.00 | 0.00 | 0.00 | 87 | 1012.9 |
| 20260507040313 | 57 | 336 | 1.7 | 6.1 | 0.00 | 0.00 | 0.00 | 87 | 1012.9 |
| 20260507035310 | 58 | 334 | 1.7 | 4.3 | 0.00 | 0.00 | 0.00 | 86 | 1012.9 |
| 20260507034807 | 58 | 335 | 1.7 | 6.1 | 0.00 | 0.00 | 0.00 | 86 | 1012.9 |
| 20260507033805 | 58 | 355 | 1.7 | 6.1 | 0.00 | 0.00 | 0.00 | 85 | 1012.7 |
| 20260507033304 | 58 | 327 | 0.9 | 6.1 | 0.00 | 0.00 | 0.00 | 85 | 1012.7 |
| 20260507032759 | 58 | 328 | 1.7 | 4.3 | 0.00 | 0.00 | 0.00 | 85 | 1012.7 |
| 20260507032258 | 58 | 328 | 1.7 | 6.1 | 0.00 | 0.00 | 0.00 | 84 | 1012.7 |
| 20260507031758 | 58 | 329 | 1.7 | 6.1 | 0.00 | 0.00 | 0.00 | 84 | 1012.7 |
| 20260507031257 | 58 | 336 | 1.7 | 5.2 | 0.00 | 0.00 | 0.00 | 84 | 1012.6 |
| 20260507030749 | 58 | 336 | 2.6 | 5.2 | 0.00 | 0.00 | 0.00 | 83 | 1012.6 |
| 20260507030249 | 59 | 329 | 2.6 | 6.1 | 0.00 | 0.00 | 0.00 | 83 | 1012.6 |
| 20260507025749 | 59 | 315 | 2.6 | 6.1 | 0.00 | 0.00 | 0.00 | 82 | 1012.4 |
| 20260507025252 | 60 | 329 | 1.7 | 5.2 | 0.00 | 0.00 | 0.00 | 81 | 1012.4 |
| 20260507024742 | 60 | 334 | 1.7 | 4.3 | 0.00 | 0.00 | 0.00 | 80 | 1012.4 |
| 20260507024241 | 60 | 311 | 1.7 | 4.3 | 0.00 | 0.00 | 0.00 | 79 | 1012.3 |
| 20260507023741 | 61 | 305 | 0.9 | 4.3 | 0.00 | 0.00 | 0.00 | 79 | 1012.3 |
| 20260507022229 | 61 | 309 | 2.6 | 7.0 | 0.00 | 0.00 | 0.00 | 76 | 1012.2 |
| 20260507021729 | 62 | 325 | 2.6 | 5.2 | 0.00 | 0.00 | 0.00 | 75 | 1012.2 |
| 20260507021228 | 62 | 323 | 2.6 | 5.2 | 0.00 | 0.00 | 0.00 | 74 | 1012.2 |
| 20260507020732 | 63 | 322 | 2.6 | 5.2 | 0.00 | 0.00 | 0.00 | 73 | 1012.2 |
| 20260507015725 | 64 | 322 | 2.6 | 7.0 | 0.00 | 0.00 | 0.00 | 70 | 1012.2 |
| 20260507015224 | 65 | 340 | 2.6 | 7.0 | 0.00 | 0.00 | 0.00 | 69 | 1012.2 |
| 20260507014722 | 65 | 279 | 1.7 | 7.0 | 0.00 | 0.00 | 0.00 | 68 | 1012.2 |
| 20260507014219 | 66 | 284 | 1.7 | 5.2 | 0.00 | 0.00 | 0.00 | 67 | 1012.3 |
| 20260507013717 | 66 | 316 | 3.5 | 7.0 | 0.00 | 0.00 | 0.00 | 67 | 1012.3 |
| 20260507013216 | 66 | 319 | 3.5 | 7.0 | 0.00 | 0.00 | 0.00 | 67 | 1012.3 |
| 20260507012212 | 66 | 288 | 2.6 | 7.0 | 0.00 | 0.00 | 0.00 | 65 | 1012.2 |
| 20260507011714 | 66 | 262 | 2.6 | 7.0 | 0.00 | 0.00 | 0.00 | 67 | 1012.2 |
| 20260507011212 | 65 | 273 | 3.5 | 9.6 | 0.00 | 0.00 | 0.00 | 67 | 1012.2 |
| 20260507010711 | 65 | 263 | 4.3 | 13.0 | 0.00 | 0.00 | 0.00 | 66 | 1012.2 |
| 20260507005708 | 65 | 255 | 4.3 | 9.6 | 0.00 | 0.00 | 0.00 | 69 | 1012.2 |
| 20260507005206 | 65 | 275 | 4.3 | 13.0 | 0.00 | 0.00 | 0.00 | 67 | 1012.2 |
| 20260507004701 | 66 | 304 | 4.3 | 13.0 | 0.00 | 0.00 | 0.00 | 68 | 1012.3 |
| 20260507004159 | 66 | 303 | 4.3 | 9.6 | 0.00 | 0.00 | 0.00 | 68 | 1012.3 |
| 20260507003658 | 65 | 272 | 5.2 | 11.3 | 0.00 | 0.00 | 0.00 | 68 | 1012.3 |
| 20260507002700 | 67 | 287 | 4.3 | 8.7 | 0.00 | 0.00 | 0.00 | 66 | 1012.1 |
| 20260507002156 | 67 | 11 | 4.3 | 9.6 | 0.00 | 0.00 | 0.00 | 65 | 1012.1 |
| 20260507001654 | 67 | 339 | 4.3 | 9.6 | 0.00 | 0.00 | 0.00 | 64 | 1012.1 |
| 20260507001155 | 68 | 323 | 3.5 | 8.7 | 0.00 | 0.00 | 0.00 | 63 | 1012.0 |
| 20260507000154 | 68 | 311 | 4.3 | 10.4 | 0.00 | 0.00 | 0.00 | 63 | 1012.0 |
| 20260506235651 | 69 | 308 | 4.3 | 9.6 | 0.00 | 0.00 | 0.00 | 63 | 1011.8 |
| 20260506235153 | 68 | 0 | 4.3 | 12.2 | 0.00 | 0.00 | 0.00 | 63 | 1011.8 |
| 20260506234650 | 69 | 355 | 4.3 | 12.2 | 0.00 | 0.00 | 0.00 | 62 | 1011.8 |
| 20260506234151 | 69 | 322 | 3.5 | 9.6 | 0.00 | 0.00 | 0.00 | 64 | 1011.8 |
| 20260506233649 | 69 | 318 | 4.3 | 9.6 | 0.00 | 0.00 | 0.00 | 64 | 1011.8 |
| 20260506233148 | 69 | 310 | 4.3 | 8.7 | 0.00 | 0.00 | 0.00 | 63 | 1011.8 |
| 20260506232650 | 68 | 320 | 5.2 | 12.2 | 0.00 | 0.00 | 0.00 | 65 | 1011.7 |
| 20260506232153 | 68 | 306 | 6.1 | 12.2 | 0.00 | 0.00 | 0.00 | 63 | 1011.7 |
| 20260506231645 | 68 | 313 | 6.1 | 12.2 | 0.00 | 0.00 | 0.00 | 63 | 1011.7 |
| 20260506231142 | 68 | 304 | 7.0 | 12.2 | 0.00 | 0.00 | 0.00 | 64 | 1011.8 |
| 20260506230640 | 67 | 316 | 7.0 | 13.0 | 0.00 | 0.00 | 0.00 | 63 | 1011.8 |
| 20260506230139 | 68 | 267 | 7.0 | 13.0 | 0.00 | 0.00 | 0.00 | 63 | 1011.8 |
| 20260506225637 | 68 | 303 | 7.0 | 13.0 | 0.00 | 0.00 | 0.00 | 64 | 1011.8 |
| 20260506225137 | 68 | 312 | 7.0 | 11.3 | 0.00 | 0.00 | 0.00 | 64 | 1011.8 |
| 20260506224638 | 67 | 305 | 7.8 | 13.0 | 0.00 | 0.00 | 0.00 | 65 | 1011.8 |
| 20260506223134 | 68 | 309 | 6.1 | 12.2 | 0.00 | 0.00 | 0.00 | 65 | 1012.0 |
| 20260506222639 | 68 | 314 | 6.1 | 14.8 | 0.00 | 0.00 | 0.00 | 64 | 1012.2 |
| 20260506222133 | 68 | 302 | 7.0 | 14.8 | 0.00 | 0.00 | 0.00 | 67 | 1012.2 |
| 20260506221630 | 68 | 308 | 6.1 | 13.0 | 0.00 | 0.00 | 0.00 | 66 | 1012.2 |
| 20260506221127 | 68 | 311 | 6.1 | 13.9 | 0.00 | 0.00 | 0.00 | 66 | 1012.3 |
| 20260506220626 | 68 | 281 | 7.0 | 15.6 | 0.00 | 0.00 | 0.00 | 66 | 1012.3 |
| 20260506220127 | 69 | 297 | 6.1 | 15.6 | 0.00 | 0.00 | 0.00 | 64 | 1012.3 |
| 20260506215126 | 68 | 286 | 6.1 | 13.9 | 0.00 | 0.00 | 0.00 | 65 | 1012.4 |
| 20260506213120 | 69 | 292 | 5.2 | 12.2 | 0.00 | 0.00 | 0.00 | 64 | 1012.6 |
| 20260506212620 | 69 | 321 | 6.1 | 12.2 | 0.00 | 0.00 | 0.00 | 64 | 1012.8 |
| 20260506212112 | 69 | 304 | 6.1 | 12.2 | 0.00 | 0.00 | 0.00 | 66 | 1012.8 |
| 20260506211610 | 69 | 315 | 5.2 | 11.3 | 0.00 | 0.00 | 0.00 | 65 | 1012.8 |
| 20260506211107 | 69 | 287 | 6.1 | 10.4 | 0.00 | 0.00 | 0.00 | 65 | 1012.8 |
| 20260506210608 | 69 | 338 | 6.1 | 11.3 | 0.00 | 0.00 | 0.00 | 66 | 1012.8 |
| 20260506210108 | 69 | 304 | 6.1 | 11.3 | 0.00 | 0.00 | 0.00 | 66 | 1012.8 |
| 20260506205105 | 69 | 319 | 6.1 | 12.2 | 0.00 | 0.00 | 0.00 | 67 | 1012.8 |
| 20260506204604 | 68 | 277 | 6.1 | 13.0 | 0.00 | 0.00 | 0.00 | 67 | 1012.8 |
| 20260506203605 | 69 | 316 | 6.1 | 13.9 | 0.00 | 0.00 | 0.00 | 64 | 1012.9 |
| 20260506203101 | 69 | 315 | 6.1 | 13.9 | 0.00 | 0.00 | 0.00 | 66 | 1012.9 |
| 20260506202555 | 70 | 308 | 6.1 | 13.9 | 0.00 | 0.00 | 0.00 | 64 | 1012.9 |
| 20260506201553 | 70 | 333 | 6.1 | 11.3 | 0.00 | 0.00 | 0.00 | 63 | 1012.9 |
| 20260506201049 | 70 | 317 | 5.2 | 11.3 | 0.00 | 0.00 | 0.00 | 63 | 1013.0 |
| 20260506200548 | 70 | 325 | 4.3 | 10.4 | 0.00 | 0.00 | 0.00 | 64 | 1013.0 |
| 20260506200046 | 70 | 323 | 4.3 | 10.4 | 0.00 | 0.00 | 0.00 | 64 | 1013.0 |
| 20260506195546 | 69 | 5 | 6.1 | 13.9 | 0.00 | 0.00 | 0.00 | 65 | 1012.9 |
| 20260506195046 | 69 | 321 | 6.1 | 13.9 | 0.00 | 0.00 | 0.00 | 64 | 1012.9 |
| 20260506194546 | 71 | 28 | 5.2 | 11.3 | 0.00 | 0.00 | 0.00 | 63 | 1012.9 |
| 20260506193541 | 71 | 315 | 6.1 | 11.3 | 0.00 | 0.00 | 0.00 | 63 | 1012.8 |
| 20260506192535 | 73 | 328 | 4.3 | 10.4 | 0.00 | 0.00 | 0.00 | 61 | 1013.0 |
| 20260506192034 | 72 | 319 | 5.2 | 11.3 | 0.00 | 0.00 | 0.00 | 61 | 1013.0 |
| 20260506191534 | 72 | 313 | 5.2 | 11.3 | 0.00 | 0.00 | 0.00 | 61 | 1013.0 |
| 20260506191031 | 71 | 320 | 4.3 | 8.7 | 0.00 | 0.00 | 0.00 | 63 | 1013.2 |
| 20260506190530 | 71 | 316 | 4.3 | 9.6 | 0.00 | 0.00 | 0.00 | 62 | 1013.2 |
| 20260506190025 | 71 | 323 | 4.3 | 9.6 | 0.00 | 0.00 | 0.00 | 62 | 1013.2 |
| 20260506185523 | 71 | 317 | 4.3 | 9.6 | 0.00 | 0.00 | 0.00 | 64 | 1013.3 |
| 20260506184517 | 71 | 315 | 5.2 | 9.6 | 0.00 | 0.00 | 0.00 | 62 | 1013.3 |
| 20260506184021 | 71 | 317 | 4.3 | 9.6 | 0.00 | 0.00 | 0.00 | 62 | 1013.2 |
| 20260506183520 | 71 | 289 | 4.3 | 8.7 | 0.00 | 0.00 | 0.00 | 61 | 1013.2 |
| 20260506183018 | 71 | 305 | 4.3 | 9.6 | 0.00 | 0.00 | 0.00 | 60 | 1013.2 |
| 20260506182514 | 71 | 315 | 4.3 | 10.4 | 0.00 | 0.00 | 0.00 | 61 | 1013.4 |
| 20260506182011 | 71 | 335 | 4.3 | 10.4 | 0.00 | 0.00 | 0.00 | 61 | 1013.4 |
| 20260506181511 | 72 | 297 | 3.5 | 7.8 | 0.00 | 0.00 | 0.00 | 60 | 1013.4 |
| 20260506181010 | 72 | 337 | 3.5 | 7.8 | 0.00 | 0.00 | 0.00 | 58 | 1013.4 |
| 20260506180512 | 72 | 314 | 3.5 | 7.0 | 0.00 | 0.00 | 0.00 | 59 | 1013.4 |
| 20260506180010 | 73 | 351 | 3.5 | 7.0 | 0.00 | 0.00 | 0.00 | 58 | 1013.4 |
| 20260506175512 | 73 | 311 | 2.6 | 6.1 | 0.00 | 0.00 | 0.00 | 59 | 1013.4 |